Lancaster, CA

11:34 PM PDT on August 21, 2017 (GMT -0700)
Gen Fox

Weather History for KWJF - April, 2013

Change the Weather History Date:

Monday, April 15, 2013

  Actual Average Record
Temperature  
Mean Temperature 56 °F 59 °F  
Max Temperature 64 °F 73 °F 92 °F (1954)
Min Temperature 47 °F 45 °F 30 °F (1970)
Degree Days  
Heating Degree Days 9    
Month to date heating degree days 48  
Since 1 July heating degree days 2626  
Cooling Degree Days 0    
Month to date cooling degree days 11  
Year to date cooling degree days 23  
Growing Degree Days 6 (Base 50)    
Moisture  
Dew Point 39 °F    
Average Humidity 58    
Maximum Humidity 77    
Minimum Humidity 39    
Precipitation  
Precipitation 0.00 in 0.01 in 0.27 in (1976)
Month to date precipitation 0.00 0.22  
Year to date precipitation 0.95 4.64  
Since 1 July precipitation 1.11  
Snow  
Snow 0.00 in - 0.00 in ()
Month to date snowfall 0.0  
Since 1 July snowfall 0.0  
Snow Depth 0.00 in    
Sea Level Pressure  
Sea Level Pressure 29.77 in    
Wind  
Wind Speed 26 mph (WSW)    
Max Wind Speed 39 mph    
Max Gust Speed 46 mph    
T = Trace of Precipitation, MM = Missing Value Source: NWS Daily Summary

Daily Weather History Graph

Daily Weather History Graph

Search for Another Location

Airport or City:

Trip Planner

Search our weather history database for the weather conditions in past years. The results will help you decide how hot, cold, wet, or windy it might be!

Date:

Astronomy

Apr. 15, 2013 Rise Set
Actual Time 6:20 AM PDT 7:25 PM PDT
Civil Twilight 5:54 AM PDT 7:51 PM PDT
Nautical Twilight 5:23 AM PDT 8:22 PM PDT
Astronomical Twilight 4:52 AM PDT 8:54 PM PDT
Moon 9:57 AM PDT (4/15) No Moon Set
Length of Visible Light 13h 56m
Length of Day
13h 04m
Waxing Crescent, 25% of the Moon is Illuminated
Apr 15
Waxing Crescent
Apr 18
First Quarter
Apr 25
Full
May 2
Last Quarter
May 9
New

Hourly Weather History & Observations

Time (PDT) Temp. Dew Point Humidity Pressure Visibility Wind Dir Wind Speed Gust Speed Precip Events Conditions
12:56 AM 52.0 °F 41.0 °F 66% 29.75 in - WSW 21.9 mph 31.1 mph N/A   Clear
1:56 AM 51.1 °F 41.0 °F 68% 29.76 in - WSW 23.0 mph - N/A   Clear
2:56 AM 51.1 °F 39.9 °F 66% 29.77 in - WSW 19.6 mph 27.6 mph N/A   Clear
3:56 AM 52.0 °F 36.0 °F 54% 29.75 in - West 32.2 mph 38.0 mph N/A   Clear
4:56 AM 50.0 °F 37.9 °F 63% 29.76 in - WSW 23.0 mph 29.9 mph N/A   Clear
5:56 AM 50.0 °F 37.0 °F 61% 29.77 in - WSW 25.3 mph 32.2 mph N/A   Clear
6:56 AM 50.0 °F 37.9 °F 63% 29.80 in - WSW 18.4 mph 33.4 mph N/A   Clear
7:56 AM 52.0 °F 37.9 °F 59% 29.82 in - West 26.5 mph 33.4 mph N/A   Partly Cloudy
8:56 AM 53.1 °F 37.9 °F 57% 29.81 in - West 34.5 mph - N/A   Clear
9:56 AM 57.0 °F 37.0 °F 47% 29.79 in - West 35.7 mph 41.4 mph N/A   Clear
10:56 AM 57.9 °F 37.9 °F 47% 29.80 in - WSW 19.6 mph 31.1 mph N/A   Mostly Cloudy
11:56 AM 62.1 °F 37.9 °F 41% 29.79 in - WSW 27.6 mph 35.7 mph N/A   Partly Cloudy
12:56 PM 62.1 °F 41.0 °F 46% 29.79 in - SW 28.8 mph 36.8 mph N/A   Clear
1:56 PM 63.0 °F 42.1 °F 46% 29.79 in - WSW 28.8 mph 36.8 mph N/A   Clear
2:56 PM 62.1 °F 41.0 °F 46% 29.77 in - SW 26.5 mph 38.0 mph N/A   Clear
3:56 PM 62.1 °F 41.0 °F 46% 29.75 in - WSW 25.3 mph 35.7 mph N/A   Clear
4:56 PM 60.1 °F 41.0 °F 49% 29.75 in - WSW 26.5 mph 35.7 mph N/A   Clear
5:56 PM 59.0 °F 42.1 °F 53% 29.75 in - WSW 26.5 mph 34.5 mph N/A   Scattered Clouds
6:56 PM 55.0 °F 42.1 °F 62% 29.75 in - SW 20.7 mph 32.2 mph N/A   Scattered Clouds
7:56 PM 53.1 °F 43.0 °F 69% 29.75 in - SW 20.7 mph 32.2 mph N/A   Partly Cloudy
8:56 PM 51.1 °F 43.0 °F 74% 29.77 in - SW 21.9 mph 32.2 mph N/A   Clear
9:56 PM 50.0 °F 42.1 °F 74% 29.78 in - SW 19.6 mph 29.9 mph N/A   Clear
10:56 PM 48.9 °F 41.0 °F 74% 29.78 in - WSW 23.0 mph 29.9 mph N/A   Clear
11:56 PM 48.0 °F 26.1 °F 42% 29.80 in - West 32.2 mph 44.9 mph N/A   Overcast